Time,TemperatureF,DewpointF,PressureIn,WindDirection,WindDirectionDegrees,WindSpeedMPH,WindSpeedGustMPH,Humidity,HourlyPrecipIn,Conditions,Clouds,dailyrainin,SoftwareType,DateUTC
2013-07-10 00:09:00,71.1,70.8,29.99,South,180,0.0,-999.0,99,-99.99,,,0.34,Acu-Link.com,2013-07-10 04:09:00,
2013-07-10 00:24:00,71.1,70.8,30.01,SSE,157,0.0,-999.0,99,-99.99,,,0.40,Acu-Link.com,2013-07-10 04:24:00,
2013-07-10 00:39:00,70.9,70.6,30.00,East,90,0.0,-999.0,99,-99.99,,,0.42,Acu-Link.com,2013-07-10 04:39:00,
2013-07-10 00:55:00,70.5,70.2,30.00,South,180,0.0,-999.0,99,-99.99,,,0.44,Acu-Link.com,2013-07-10 04:55:00,
2013-07-10 01:10:00,70.3,70.0,29.99,NW,315,0.0,-999.0,99,-99.99,,,0.44,Acu-Link.com,2013-07-10 05:10:00,
2013-07-10 01:26:00,70.2,69.9,29.99,SSW,202,0.0,-999.0,99,-99.99,,,0.44,Acu-Link.com,2013-07-10 05:26:00,
2013-07-10 01:41:00,70.0,69.7,29.99,SSE,157,0.0,-999.0,99,-99.99,,,0.44,Acu-Link.com,2013-07-10 05:41:00,
2013-07-10 01:56:00,70.0,69.7,29.97,East,90,0.0,-999.0,99,-99.99,,,0.44,Acu-Link.com,2013-07-10 05:56:00,
2013-07-10 02:11:00,70.0,69.7,29.96,ENE,67,0.0,-999.0,99,-99.99,,,0.44,Acu-Link.com,2013-07-10 06:11:00,
2013-07-10 02:27:00,69.8,69.5,29.95,SW,225,0.0,-999.0,99,-99.99,,,0.44,Acu-Link.com,2013-07-10 06:27:00,
2013-07-10 02:42:00,69.6,69.3,29.93,WNW,292,0.0,-999.0,99,-99.99,,,0.44,Acu-Link.com,2013-07-10 06:42:00,
2013-07-10 02:58:00,69.6,69.3,29.92,NW,315,0.0,-999.0,99,-99.99,,,0.44,Acu-Link.com,2013-07-10 06:58:00,
2013-07-10 03:13:00,69.4,69.1,29.93,SSE,157,0.0,-999.0,99,-99.99,,,0.44,Acu-Link.com,2013-07-10 07:13:00,
2013-07-10 03:28:00,69.4,69.1,29.94,SSW,202,0.0,-999.0,99,-99.99,,,0.44,Acu-Link.com,2013-07-10 07:28:00,
2013-07-10 03:44:00,69.6,69.3,29.95,SW,225,0.0,-999.0,99,-99.99,,,0.44,Acu-Link.com,2013-07-10 07:44:00,
2013-07-10 03:59:00,69.6,69.3,29.96,SW,225,0.0,-999.0,99,-99.99,,,0.44,Acu-Link.com,2013-07-10 07:59:00,
2013-07-10 04:14:00,69.6,69.3,29.97,SW,225,0.0,-999.0,99,-99.99,,,0.44,Acu-Link.com,2013-07-10 08:14:00,
2013-07-10 04:29:00,69.8,69.5,29.97,SW,225,0.0,-999.0,99,-99.99,,,0.44,Acu-Link.com,2013-07-10 08:29:00,
2013-07-10 04:44:00,70.0,69.7,29.97,SW,225,0.0,-999.0,99,-99.99,,,0.44,Acu-Link.com,2013-07-10 08:44:00,
2013-07-10 05:00:00,70.0,69.7,29.96,West,270,0.0,-999.0,99,-99.99,,,0.44,Acu-Link.com,2013-07-10 09:00:00,
2013-07-10 05:15:00,69.6,69.3,29.95,SE,135,0.0,-999.0,99,-99.99,,,0.44,Acu-Link.com,2013-07-10 09:15:00,
2013-07-10 05:30:00,69.4,69.1,29.95,NNE,22,0.0,-999.0,99,-99.99,,,0.44,Acu-Link.com,2013-07-10 09:30:00,
2013-07-10 05:45:00,69.3,69.0,29.95,West,270,0.0,-999.0,99,-99.99,,,0.44,Acu-Link.com,2013-07-10 09:45:00,
2013-07-10 06:00:00,69.3,69.0,29.95,SW,225,0.0,-999.0,99,-99.99,,,0.44,Acu-Link.com,2013-07-10 10:00:00,
2013-07-10 06:15:00,68.9,68.6,29.96,SSW,202,0.0,-999.0,99,-99.99,,,0.44,Acu-Link.com,2013-07-10 10:15:00,
2013-07-10 06:30:00,68.9,68.6,29.96,WSW,247,0.0,-999.0,99,-99.99,,,0.44,Acu-Link.com,2013-07-10 10:30:00,
2013-07-10 06:46:00,68.9,68.6,29.96,SW,225,0.0,-999.0,99,-99.99,,,0.44,Acu-Link.com,2013-07-10 10:46:00,
2013-07-10 07:01:00,68.9,68.6,29.96,SW,225,0.0,-999.0,99,-99.99,,,0.44,Acu-Link.com,2013-07-10 11:01:00,
2013-07-10 07:17:00,68.9,68.6,29.96,West,270,0.0,-999.0,99,-99.99,,,0.44,Acu-Link.com,2013-07-10 11:17:00,
2013-07-10 07:32:00,69.3,69.0,29.96,NNW,337,0.0,-999.0,99,-99.99,,,0.44,Acu-Link.com,2013-07-10 11:32:00,
2013-07-10 07:47:00,69.8,69.5,29.96,ENE,67,0.0,-999.0,99,-99.99,,,0.44,Acu-Link.com,2013-07-10 11:47:00,
2013-07-10 08:02:00,70.5,70.2,29.96,ENE,67,0.0,-999.0,99,-99.99,,,0.44,Acu-Link.com,2013-07-10 12:02:00,
2013-07-10 08:18:00,71.6,71.3,29.96,ENE,67,0.0,-999.0,99,-99.99,,,0.44,Acu-Link.com,2013-07-10 12:18:00,
2013-07-10 08:33:00,72.5,72.2,29.96,West,270,0.0,-999.0,99,-99.99,,,0.44,Acu-Link.com,2013-07-10 12:33:00,
2013-07-10 08:48:00,72.7,72.4,29.96,NE,45,0.0,-999.0,99,-99.99,,,0.44,Acu-Link.com,2013-07-10 12:48:00,
2013-07-10 09:04:00,72.7,72.4,29.97,NE,45,0.0,-999.0,99,-99.99,,,0.44,Acu-Link.com,2013-07-10 13:04:00,
2013-07-10 09:19:00,73.0,72.7,29.97,NE,45,0.0,-999.0,99,-99.99,,,0.44,Acu-Link.com,2013-07-10 13:19:00,
2013-07-10 09:34:00,73.2,72.9,29.98,NE,45,0.0,-999.0,99,-99.99,,,0.44,Acu-Link.com,2013-07-10 13:34:00,
2013-07-10 09:50:00,73.2,72.9,29.97,NE,45,0.0,-999.0,99,-99.99,,,0.44,Acu-Link.com,2013-07-10 13:50:00,
2013-07-10 10:05:00,73.6,73.3,29.97,NE,45,0.0,-999.0,99,-99.99,,,0.44,Acu-Link.com,2013-07-10 14:05:00,
2013-07-10 10:20:00,73.6,73.3,29.97,NE,45,0.0,-999.0,99,-99.99,,,0.44,Acu-Link.com,2013-07-10 14:20:00,
2013-07-10 10:35:00,73.8,73.5,29.97,NE,45,0.0,-999.0,99,-99.99,,,0.44,Acu-Link.com,2013-07-10 14:35:00,
2013-07-10 10:50:00,74.1,73.8,29.97,West,270,0.0,-999.0,99,-99.99,,,0.44,Acu-Link.com,2013-07-10 14:50:00,
2013-07-10 11:06:00,74.3,74.0,29.97,SSW,202,0.0,-999.0,99,-99.99,,,0.44,Acu-Link.com,2013-07-10 15:06:00,
2013-07-10 11:22:00,74.7,74.4,29.97,SSW,202,0.0,-999.0,99,-99.99,,,0.44,Acu-Link.com,2013-07-10 15:22:00,
2013-07-10 11:37:00,75.6,75.3,29.97,WSW,247,0.0,-999.0,99,-99.99,,,0.44,Acu-Link.com,2013-07-10 15:37:00,
2013-07-10 11:52:00,76.5,76.2,29.96,NE,45,0.0,-999.0,99,-99.99,,,0.44,Acu-Link.com,2013-07-10 15:52:00,
2013-07-10 12:08:00,77.4,75.9,29.96,ESE,112,0.0,-999.0,95,-99.99,,,0.44,Acu-Link.com,2013-07-10 16:08:00,
2013-07-10 12:23:00,77.7,76.1,29.96,NW,315,0.0,-999.0,95,-99.99,,,0.44,Acu-Link.com,2013-07-10 16:23:00,
2013-07-10 12:38:00,78.3,76.1,29.96,WSW,247,0.0,-999.0,93,-99.99,,,0.44,Acu-Link.com,2013-07-10 16:38:00,
2013-07-10 12:54:00,79.0,75.8,29.95,South,180,0.0,-999.0,90,-99.99,,,0.44,Acu-Link.com,2013-07-10 16:54:00,
2013-07-10 13:09:00,79.7,75.8,29.94,NNE,22,0.0,-999.0,88,-99.99,,,0.44,Acu-Link.com,2013-07-10 17:09:00,
2013-07-10 13:24:00,81.1,76.9,29.93,East,90,0.0,-999.0,87,-99.99,,,0.44,Acu-Link.com,2013-07-10 17:24:00,
2013-07-10 13:39:00,81.3,78.1,29.92,SW,225,0.0,-999.0,90,-99.99,,,0.44,Acu-Link.com,2013-07-10 17:39:00,
2013-07-10 13:55:00,81.1,77.5,29.92,NE,45,0.0,-999.0,89,-99.99,,,0.44,Acu-Link.com,2013-07-10 17:55:00,
2013-07-10 14:10:00,82.4,76.7,29.90,ESE,112,1.1,-999.0,83,-99.99,,,0.44,Acu-Link.com,2013-07-10 18:10:00,
2013-07-10 14:25:00,83.1,78.8,29.90,SE,135,0.0,-999.0,87,-99.99,,,0.44,Acu-Link.com,2013-07-10 18:25:00,
2013-07-10 14:40:00,82.2,78.3,29.88,SSE,157,0.0,-999.0,88,-99.99,,,0.44,Acu-Link.com,2013-07-10 18:40:00,
2013-07-10 14:56:00,84.2,78.1,29.88,South,180,0.0,-999.0,82,-99.99,,,0.44,Acu-Link.com,2013-07-10 18:56:00,
2013-07-10 15:11:00,84.9,78.4,29.88,East,90,0.0,-999.0,81,-99.99,,,0.44,Acu-Link.com,2013-07-10 19:11:00,
2013-07-10 15:27:00,86.0,75.5,29.86,SSE,157,1.7,-999.0,71,-99.99,,,0.44,Acu-Link.com,2013-07-10 19:27:00,
2013-07-10 15:42:00,86.4,77.5,29.87,SSE,157,0.0,-999.0,75,-99.99,,,0.44,Acu-Link.com,2013-07-10 19:42:00,
2013-07-10 15:57:00,85.6,75.9,29.86,WSW,247,0.0,-999.0,73,-99.99,,,0.44,Acu-Link.com,2013-07-10 19:57:00,
2013-07-10 16:13:00,84.6,78.1,29.86,SSW,202,0.0,-999.0,81,-99.99,,,0.44,Acu-Link.com,2013-07-10 20:13:00,
2013-07-10 16:28:00,84.4,77.9,29.86,SW,225,0.0,-999.0,81,-99.99,,,0.44,Acu-Link.com,2013-07-10 20:28:00,
2013-07-10 16:44:00,84.4,77.9,29.84,West,270,0.0,-999.0,81,-99.99,,,0.44,Acu-Link.com,2013-07-10 20:44:00,
2013-07-10 16:59:00,83.5,78.5,29.83,SSW,202,0.0,-999.0,85,-99.99,,,0.44,Acu-Link.com,2013-07-10 20:59:00,
2013-07-10 17:14:00,82.9,77.2,29.83,WSW,247,0.0,-999.0,83,-99.99,,,0.44,Acu-Link.com,2013-07-10 21:14:00,
2013-07-10 17:30:00,82.9,78.6,29.83,West,270,0.0,-999.0,87,-99.99,,,0.44,Acu-Link.com,2013-07-10 21:30:00,
2013-07-10 17:45:00,82.6,77.6,29.83,WSW,247,0.0,-999.0,85,-99.99,,,0.44,Acu-Link.com,2013-07-10 21:45:00,
2013-07-10 18:01:00,81.3,77.0,29.84,SW,225,0.0,-999.0,87,-99.99,,,0.44,Acu-Link.com,2013-07-10 22:01:00,
2013-07-10 18:16:00,79.3,75.1,29.84,WNW,292,2.2,-999.0,87,-99.99,,,0.45,Acu-Link.com,2013-07-10 22:16:00,
2013-07-10 18:31:00,75.9,73.4,29.86,NNW,337,2.2,-999.0,92,-99.99,,,0.60,Acu-Link.com,2013-07-10 22:31:00,
2013-07-10 18:47:00,74.8,73.9,29.85,SSE,157,0.0,-999.0,97,-99.99,,,0.92,Acu-Link.com,2013-07-10 22:47:00,
2013-07-10 19:02:00,74.5,73.6,29.84,SE,135,0.0,-999.0,97,-99.99,,,1.13,Acu-Link.com,2013-07-10 23:02:00,
2013-07-10 19:18:00,73.9,73.6,29.85,South,180,0.0,-999.0,99,-99.99,,,1.15,Acu-Link.com,2013-07-10 23:18:00,
2013-07-10 19:33:00,73.9,73.6,29.85,West,270,0.0,-999.0,99,-99.99,,,1.15,Acu-Link.com,2013-07-10 23:33:00,
2013-07-10 19:48:00,73.9,73.6,29.86,South,180,0.0,-999.0,99,-99.99,,,1.15,Acu-Link.com,2013-07-10 23:48:00,
2013-07-10 20:04:00,73.9,73.6,29.86,West,270,0.0,-999.0,99,-99.99,,,1.15,Acu-Link.com,2013-07-11 00:04:00,
2013-07-10 20:19:00,73.8,73.5,29.86,ESE,112,0.0,-999.0,99,-99.99,,,1.15,Acu-Link.com,2013-07-11 00:19:00,
2013-07-10 20:34:00,73.4,73.1,29.86,ESE,112,0.0,-999.0,99,-99.99,,,1.15,Acu-Link.com,2013-07-11 00:34:00,
2013-07-10 20:49:00,73.4,73.1,29.86,ESE,112,0.0,-999.0,99,-99.99,,,1.15,Acu-Link.com,2013-07-11 00:49:00,
2013-07-10 21:05:00,73.2,72.9,29.86,ESE,112,0.0,-999.0,99,-99.99,,,1.15,Acu-Link.com,2013-07-11 01:05:00,
2013-07-10 21:21:00,73.2,72.9,29.86,ESE,112,0.0,-999.0,99,-99.99,,,1.15,Acu-Link.com,2013-07-11 01:21:00,
2013-07-10 21:36:00,73.0,72.7,29.87,ESE,112,0.0,-999.0,99,-99.99,,,1.15,Acu-Link.com,2013-07-11 01:36:00,
2013-07-10 21:51:00,73.0,72.7,29.87,ESE,112,0.0,-999.0,99,-99.99,,,1.15,Acu-Link.com,2013-07-11 01:51:00,
2013-07-10 22:07:00,73.0,72.7,29.87,ESE,112,0.0,-999.0,99,-99.99,,,1.15,Acu-Link.com,2013-07-11 02:07:00,
2013-07-10 22:22:00,73.0,72.7,29.88,ESE,112,0.0,-999.0,99,-99.99,,,1.15,Acu-Link.com,2013-07-11 02:22:00,
2013-07-10 22:37:00,73.0,72.7,29.88,ESE,112,0.0,-999.0,99,-99.99,,,1.15,Acu-Link.com,2013-07-11 02:37:00,
2013-07-10 22:53:00,73.0,72.7,29.86,ESE,112,0.0,-999.0,99,-99.99,,,1.15,Acu-Link.com,2013-07-11 02:53:00,
2013-07-10 23:08:00,73.0,72.7,29.86,ESE,112,0.0,-999.0,99,-99.99,,,1.15,Acu-Link.com,2013-07-11 03:08:00,
2013-07-10 23:23:00,73.0,72.7,29.85,ESE,112,0.0,-999.0,99,-99.99,,,1.15,Acu-Link.com,2013-07-11 03:23:00,
2013-07-10 23:38:00,73.0,72.7,29.85,South,180,0.0,-999.0,99,-99.99,,,1.16,Acu-Link.com,2013-07-11 03:38:00,
2013-07-10 23:54:00,73.2,72.9,29.84,East,90,0.0,-999.0,99,-99.99,,,1.38,Acu-Link.com,2013-07-11 03:54:00,